Dover AFB, DE

7:37 AM EST on December 04, 2016 (GMT -0500)
Dover Air Force Base

Weather History for KDOV - February, 2013

Change the Weather History Date:

Friday, February 1, 2013

  Actual Average Record
Temperature  
Mean Temperature 26 °F -  
Max Temperature 30 °F 45 °F 73 °F (2002)
Min Temperature 19 °F 25 °F 8 °F (1971)
Degree Days  
Heating Degree Days 40    
Moisture  
Dew Point 23 °F    
Average Humidity 84    
Maximum Humidity 100    
Minimum Humidity 43    
Precipitation  
Precipitation 0.10 in - - ()
Snow  
Snow 0.00 in - - ()
Snow Depth 2.00 in    
Sea Level Pressure  
Sea Level Pressure 29.95 in    
Wind  
Wind Speed 9 mph (WNW)    
Max Wind Speed 28 mph    
Max Gust Speed 37 mph    
Visibility 3 miles    
Events Fog , Snow    
Averages and records for this station are not official NWS values.
T = Trace of Precipitation, MM = Missing Value Source: NWS Daily Summary

Daily Weather History Graph

Daily Weather History Graph

Search for Another Location

Airport or City:

Trip Planner

Search our weather history database for the weather conditions in past years. The results will help you decide how hot, cold, wet, or windy it might be!

Date:

Astronomy

Feb. 01, 2013 Rise Set
Actual Time 7:08 AM EST 5:23 PM EST
Civil Twilight 6:40 AM EST 5:51 PM EST
Nautical Twilight 6:08 AM EST 6:23 PM EST
Astronomical Twilight 5:36 AM EST 6:54 PM EST
Moon 11:24 PM EST (2/1) 9:43 AM EST (2/1)
Length of Visible Light 11h 11m
Length of Day
10h 14m
Waning Gibbous, 70% of the Moon is Illuminated
Feb 1
Waning Gibbous
Feb 3
Last Quarter
Feb 10
New
Feb 17
First Quarter
Feb 25
Full

Hourly Weather History & Observations

Time (EST) Temp. Windchill Dew Point Humidity Pressure Visibility Wind Dir Wind Speed Gust Speed Precip Events Conditions
12:55 AM 30.9 °F 22.8 °F 11.1 °F 44% 29.92 in 10.0 mi West 9.2 mph - N/A   Scattered Clouds
1:55 AM 28.8 °F 23.7 °F 13.6 °F 53% 29.91 in 10.0 mi South 4.6 mph - N/A   Clear
2:55 AM 26.8 °F 21.4 °F 16.7 °F 66% 29.91 in 10.0 mi South 4.6 mph - N/A   Mostly Cloudy
3:55 AM 28.4 °F 22.2 °F 17.6 °F 64% 29.89 in 10.0 mi South 5.8 mph - N/A   Overcast
4:55 AM 28.8 °F 25.0 °F 18.3 °F 65% 29.85 in 10.0 mi ESE 3.5 mph - N/A   Mostly Cloudy
5:55 AM 29.8 °F 24.9 °F 18.5 °F 63% 29.84 in 10.0 mi SE 4.6 mph - N/A   Mostly Cloudy
6:07 AM 30.2 °F 25.4 °F 19.4 °F 64% 29.84 in 10.0 mi SSE 4.6 mph - N/A   Scattered Clouds
6:19 AM 30.2 °F 24.3 °F 21.2 °F 69% 29.84 in 7.0 mi SW 5.8 mph - N/A Snow Light Snow
6:21 AM 30.2 °F 25.4 °F 23.0 °F 75% 29.84 in 7.0 mi WSW 4.6 mph - N/A Snow Light Snow
6:22 AM 30.2 °F 25.4 °F 21.2 °F 69% 29.84 in 6.0 mi WSW 4.6 mph - N/A Snow Light Snow
6:32 AM 30.2 °F 25.4 °F 23.0 °F 75% 29.84 in 4.0 mi West 4.6 mph - N/A Snow Light Snow
6:36 AM 30.2 °F 24.3 °F 24.8 °F 80% 29.85 in 2.5 mi WSW 5.8 mph - N/A Snow Light Snow
6:41 AM 30.2 °F 24.3 °F 26.6 °F 86% 29.85 in 1.8 mi WSW 5.8 mph - N/A Snow Light Snow
6:53 AM 28.4 °F 24.6 °F 28.4 °F 100% 29.86 in 1.5 mi SW 3.5 mph - N/A Snow Light Snow
6:54 AM 28.4 °F 24.6 °F 28.4 °F 100% 29.86 in 1.5 mi SW 3.5 mph - N/A Snow Light Snow
6:55 AM 28.9 °F 25.2 °F 28.0 °F 96% 29.86 in 1.5 mi SW 3.5 mph - 0.00 in Snow Light Snow
6:58 AM 28.4 °F 24.6 °F 28.4 °F 100% 29.86 in 1.5 mi WSW 3.5 mph - N/A Snow Light Snow
7:01 AM 28.4 °F - 28.4 °F 100% 29.86 in 1.2 mi Calm Calm - N/A Snow Light Snow
7:03 AM 28.4 °F - 28.4 °F 100% 29.86 in 1.5 mi Calm Calm - N/A Snow Light Snow
7:04 AM 28.4 °F - 28.4 °F 100% 29.86 in 1.2 mi Calm Calm - N/A Snow Light Snow
7:07 AM 28.4 °F - 28.4 °F 100% 29.86 in 1.0 mi Calm Calm - N/A Snow Light Snow
7:09 AM 28.4 °F 24.6 °F 28.4 °F 100% 29.86 in 1.0 mi SW 3.5 mph - N/A Snow Light Snow
7:10 AM 28.4 °F 24.6 °F 28.4 °F 100% 29.86 in 0.8 mi SW 3.5 mph - N/A Snow Light Snow
7:15 AM 28.4 °F - 28.4 °F 100% 29.86 in 0.8 mi Calm Calm - N/A Snow Light Snow
7:18 AM 28.4 °F 24.6 °F 28.4 °F 100% 29.86 in 0.5 mi SW 3.5 mph - N/A Fog , Snow Light Freezing Fog
7:25 AM 28.4 °F 24.6 °F 28.4 °F 100% 29.86 in 0.5 mi SSW 3.5 mph - N/A Fog , Snow Light Freezing Fog
7:26 AM 28.4 °F - 28.4 °F 100% 29.86 in 0.5 mi Calm Calm - N/A Fog , Snow Light Freezing Fog
7:27 AM 28.4 °F - 28.4 °F 100% 29.86 in 0.2 mi Calm Calm - N/A Fog , Snow Light Freezing Fog
7:28 AM 28.4 °F - 28.4 °F 100% 29.86 in 0.2 mi Calm Calm - N/A Fog , Snow Light Freezing Fog
7:32 AM 28.4 °F - 28.4 °F 100% 29.86 in 0.2 mi Calm Calm - N/A Fog , Snow Light Freezing Fog
7:34 AM 28.4 °F - 28.4 °F 100% 29.86 in 0.2 mi Calm Calm - N/A Fog , Snow Light Freezing Fog
7:36 AM 28.4 °F - 28.4 °F 100% 29.86 in 0.5 mi Calm Calm - N/A Fog , Snow Light Freezing Fog
7:40 AM 28.4 °F - 28.4 °F 100% 29.87 in 0.5 mi Calm Calm - N/A Fog , Snow Light Freezing Fog
7:46 AM 28.4 °F - 28.4 °F 100% 29.87 in 0.5 mi Calm Calm - N/A Fog , Snow Light Freezing Fog
7:55 AM 28.0 °F - 27.9 °F 99% 29.87 in 0.5 mi Calm Calm - 0.06 in Fog , Snow Light Freezing Fog
7:58 AM 28.4 °F 24.6 °F 28.4 °F 100% 29.87 in 0.5 mi NNW 3.5 mph - N/A Fog , Snow Light Freezing Fog
8:00 AM 28.4 °F 24.6 °F 28.4 °F 100% 29.88 in 0.8 mi NNW 3.5 mph - N/A Snow Light Snow
8:02 AM 28.4 °F 23.3 °F 28.4 °F 100% 29.88 in 0.8 mi NNW 4.6 mph - N/A Snow Light Snow
8:03 AM 28.4 °F 22.2 °F 28.4 °F 100% 29.88 in 0.8 mi NNW 5.8 mph - N/A Snow Light Snow
8:05 AM 28.4 °F 22.2 °F 28.4 °F 100% 29.88 in 1.0 mi NNW 5.8 mph - N/A Snow Light Snow
8:08 AM 28.4 °F 22.2 °F 28.4 °F 100% 29.88 in 1.2 mi NW 5.8 mph - N/A Snow Light Snow
8:17 AM 28.4 °F 19.1 °F 28.4 °F 100% 29.89 in 1.0 mi NW 10.4 mph - N/A Snow Light Snow
8:20 AM 28.4 °F 18.5 °F 28.4 °F 100% 29.89 in 0.8 mi NW 11.5 mph - N/A Snow Light Snow
8:23 AM 28.4 °F 18.0 °F 28.4 °F 100% 29.89 in 0.8 mi NW 12.7 mph - N/A Snow Light Snow
8:24 AM 28.4 °F 18.0 °F 28.4 °F 100% 29.89 in 0.5 mi NW 12.7 mph - N/A Fog , Snow Light Freezing Fog
8:25 AM 28.4 °F 18.5 °F 28.4 °F 100% 29.89 in 0.5 mi NW 11.5 mph - N/A Fog , Snow Light Freezing Fog
8:26 AM 28.4 °F 18.0 °F 28.4 °F 100% 29.89 in 0.5 mi NW 12.7 mph - N/A Fog , Snow Light Freezing Fog
8:40 AM 28.4 °F 16.6 °F 28.4 °F 100% 29.90 in 0.2 mi NW 16.1 mph 20.7 mph N/A Fog , Snow Heavy Freezing Fog
8:41 AM 28.4 °F 17.0 °F 28.4 °F 100% 29.90 in 0.5 mi NNW 15.0 mph 20.7 mph N/A Fog , Snow Light Freezing Fog
8:53 AM 28.4 °F 19.1 °F 26.6 °F 93% 29.91 in 0.8 mi NW 10.4 mph - N/A Snow Light Snow
8:54 AM 28.4 °F 19.7 °F 26.6 °F 93% 29.91 in 0.8 mi NW 9.2 mph - N/A Snow Light Snow
8:55 AM 27.9 °F 18.4 °F 27.5 °F 99% 29.91 in 0.8 mi NW 10.4 mph - 0.03 in Snow Light Snow
9:01 AM 28.4 °F 16.6 °F 28.4 °F 100% 29.91 in 0.8 mi NW 16.1 mph - N/A Snow Light Snow
9:06 AM 28.4 °F 16.6 °F 26.6 °F 93% 29.91 in 0.8 mi NW 16.1 mph - N/A Snow Light Snow
9:10 AM 28.4 °F 17.0 °F 26.6 °F 93% 29.92 in 0.5 mi WNW 15.0 mph - N/A Fog , Snow Light Freezing Fog
9:22 AM 28.4 °F 18.0 °F 26.6 °F 93% 29.93 in 0.2 mi WNW 12.7 mph 20.7 mph N/A Fog , Snow Light Freezing Fog
9:30 AM 26.6 °F 12.4 °F 26.6 °F 100% 29.93 in 0.2 mi WNW 21.9 mph 28.8 mph N/A Fog , Snow Heavy Freezing Fog
9:35 AM 26.6 °F 14.3 °F 26.6 °F 100% 29.93 in 0.2 mi NW 16.1 mph 28.8 mph N/A Fog , Snow Light Freezing Fog
9:36 AM 26.6 °F 14.3 °F 26.6 °F 100% 29.93 in 0.2 mi NW 16.1 mph - N/A Fog , Snow Light Freezing Fog
9:37 AM 26.6 °F 14.7 °F 26.6 °F 100% 29.93 in 0.5 mi NW 15.0 mph - N/A Fog , Snow Light Freezing Fog
9:40 AM 26.6 °F 14.3 °F 26.6 °F 100% 29.93 in 0.8 mi NW 16.1 mph - N/A Snow Light Snow
9:41 AM 26.6 °F 14.3 °F 24.8 °F 93% 29.94 in 1.0 mi NW 16.1 mph - N/A Snow Light Snow
9:42 AM 26.6 °F 14.7 °F 24.8 °F 93% 29.94 in 1.2 mi NW 15.0 mph - N/A Snow Light Snow
9:43 AM 26.6 °F 15.2 °F 24.8 °F 93% 29.94 in 1.8 mi NW 13.8 mph - N/A Snow Light Snow
9:44 AM 26.6 °F 14.7 °F 24.8 °F 93% 29.94 in 2.0 mi NW 15.0 mph - N/A Snow Light Snow
9:45 AM 26.6 °F 14.3 °F 24.8 °F 93% 29.94 in 2.5 mi WNW 16.1 mph - N/A Snow Light Snow
9:49 AM 26.6 °F 13.8 °F 24.8 °F 93% 29.94 in 1.8 mi WNW 17.3 mph - N/A Snow Light Snow
9:51 AM 26.6 °F 14.3 °F 24.8 °F 93% 29.94 in 1.2 mi WNW 16.1 mph - N/A Snow Light Snow
9:53 AM 26.6 °F 14.7 °F 24.8 °F 93% 29.94 in 1.0 mi WNW 15.0 mph - N/A Snow Light Snow
9:55 AM 27.1 °F 14.9 °F 25.0 °F 92% 29.94 in 1.0 mi WNW 16.1 mph - 0.01 in Snow Light Snow
9:57 AM 26.6 °F 14.3 °F 24.8 °F 93% 29.94 in 1.0 mi WNW 16.1 mph - N/A Snow Light Snow
9:59 AM 26.6 °F 14.7 °F 24.8 °F 93% 29.94 in 0.8 mi WNW 15.0 mph - N/A Snow Light Snow
10:00 AM 26.6 °F 14.7 °F 24.8 °F 93% 29.95 in 0.8 mi WNW 15.0 mph - N/A Snow Light Snow
10:07 AM 26.6 °F 15.2 °F 24.8 °F 93% 29.96 in 0.5 mi West 13.8 mph - N/A Fog , Snow Light Freezing Fog
10:12 AM 26.6 °F 13.8 °F 24.8 °F 93% 29.96 in 0.8 mi WNW 17.3 mph 25.3 mph N/A Snow Light Snow
10:18 AM 26.6 °F 13.4 °F 24.8 °F 93% 29.96 in 0.8 mi WNW 18.4 mph 25.3 mph N/A Snow Light Snow
10:20 AM 26.6 °F 14.7 °F 24.8 °F 93% 29.96 in 1.0 mi WNW 15.0 mph 23.0 mph N/A Snow Light Snow
10:25 AM 26.6 °F 13.1 °F 24.8 °F 93% 29.96 in 1.2 mi WNW 19.6 mph - N/A Snow Light Snow
10:27 AM 26.6 °F 13.4 °F 23.0 °F 86% 29.96 in 1.5 mi WNW 18.4 mph 23.0 mph N/A Snow Light Snow
10:31 AM 28.4 °F 16.2 °F 23.0 °F 80% 29.97 in 2.0 mi WNW 17.3 mph 24.2 mph N/A Snow Light Snow
10:35 AM 28.4 °F 15.8 °F 23.0 °F 80% 29.97 in 2.5 mi WNW 18.4 mph 24.2 mph N/A Snow Light Snow
10:37 AM 28.4 °F 16.2 °F 23.0 °F 80% 29.97 in 3.0 mi WNW 17.3 mph 24.2 mph N/A Snow Light Snow
10:40 AM 28.4 °F 15.8 °F 23.0 °F 80% 29.97 in 4.0 mi WNW 18.4 mph 23.0 mph N/A Snow Light Snow
10:42 AM 28.4 °F 16.2 °F 23.0 °F 80% 29.97 in 6.0 mi WNW 17.3 mph 23.0 mph N/A Snow Light Snow
10:48 AM 28.4 °F 14.4 °F 23.0 °F 80% 29.97 in 2.5 mi West 23.0 mph 28.8 mph N/A Snow Light Snow
10:50 AM 28.4 °F 13.3 °F 23.0 °F 80% 29.97 in 1.5 mi West 27.6 mph 35.7 mph N/A Snow Light Snow
10:51 AM 28.4 °F 13.5 °F 23.0 °F 80% 29.97 in 1.2 mi West 26.5 mph 35.7 mph N/A Snow Light Snow
10:53 AM 26.6 °F 11.7 °F 23.0 °F 86% 29.98 in 1.0 mi WNW 24.2 mph 35.7 mph N/A Snow Light Snow
10:55 AM 26.8 °F 12.6 °F 23.2 °F 86% 29.98 in 1.0 mi WNW 21.9 mph 35.7 mph 0.00 in Snow Light Snow
11:00 AM 26.6 °F 12.7 °F 23.0 °F 86% 29.99 in 1.2 mi WNW 20.7 mph 29.9 mph N/A Snow Light Snow
11:02 AM 26.6 °F 13.1 °F 23.0 °F 86% 29.99 in 1.5 mi WNW 19.6 mph 29.9 mph N/A Snow Light Snow
11:04 AM 26.6 °F 13.8 °F 23.0 °F 86% 29.99 in 2.0 mi WNW 17.3 mph 29.9 mph N/A Snow Light Snow
11:09 AM 26.6 °F 13.4 °F 23.0 °F 86% 29.99 in 1.8 mi West 18.4 mph 27.6 mph N/A Snow Light Snow
11:13 AM 26.6 °F 13.8 °F 23.0 °F 86% 29.99 in 2.0 mi West 17.3 mph - N/A Snow Light Snow
11:17 AM 26.6 °F 14.3 °F 21.2 °F 80% 30.00 in 3.0 mi West 16.1 mph - N/A Snow Light Snow
11:18 AM 26.6 °F 14.7 °F 21.2 °F 80% 30.00 in 4.0 mi West 15.0 mph - N/A Snow Light Snow
11:25 AM 26.6 °F 15.2 °F 19.4 °F 74% 30.00 in 10.0 mi West 13.8 mph - N/A   Partly Cloudy
12:29 PM 26.6 °F 12.4 °F 10.4 °F 51% 30.02 in 7.0 mi WNW 21.9 mph 36.8 mph N/A   Scattered Clouds
12:55 PM 28.2 °F 13.6 °F 10.2 °F 47% 30.03 in 10.0 mi West 25.3 mph 35.7 mph N/A   Scattered Clouds
1:14 PM 28.4 °F 15.4 °F 8.6 °F 43% 30.03 in 10.0 mi WNW 19.6 mph 27.6 mph N/A   Partly Cloudy
1:22 PM 28.4 °F 14.7 °F 10.4 °F 47% 30.04 in 10.0 mi WNW 21.9 mph 32.2 mph N/A   Light Freezing Rain
1:31 PM 28.4 °F 14.4 °F 8.6 °F 43% 30.04 in 10.0 mi WNW 23.0 mph 31.1 mph N/A   Partly Cloudy
1:55 PM 29.1 °F 16.0 °F 9.3 °F 44% 30.05 in 10.0 mi West 20.7 mph 27.6 mph N/A   Partly Cloudy
2:55 PM 28.0 °F 14.6 °F 9.3 °F 45% 30.09 in 10.0 mi WNW 20.7 mph 27.6 mph N/A   Partly Cloudy
3:55 PM 28.0 °F 15.3 °F 8.1 °F 43% 30.12 in 10.0 mi WNW 18.4 mph 31.1 mph N/A   Scattered Clouds
4:55 PM 27.1 °F 13.8 °F 7.5 °F 44% 30.16 in 10.0 mi West 19.6 mph 26.5 mph N/A   Mostly Cloudy
5:55 PM 25.3 °F 13.1 °F 6.4 °F 45% 30.20 in 10.0 mi West 15.0 mph 21.9 mph N/A   Partly Cloudy
6:55 PM 24.6 °F 11.3 °F 5.7 °F 45% 30.24 in 10.0 mi West 17.3 mph - N/A   Clear
7:55 PM 23.2 °F 10.8 °F 5.9 °F 48% 30.27 in 10.0 mi West 13.8 mph - N/A   Clear
8:55 PM 22.6 °F 9.2 °F 5.2 °F 47% 30.29 in 10.0 mi West 16.1 mph - N/A   Clear
9:55 PM 21.7 °F 9.0 °F 5.4 °F 49% 30.31 in 10.0 mi West 13.8 mph - N/A   Clear
10:55 PM 21.2 °F 7.8 °F 4.6 °F 49% 30.33 in 10.0 mi West 15.0 mph - N/A   Clear
11:55 PM 19.9 °F 9.3 °F 5.2 °F 53% 30.34 in 10.0 mi West 9.2 mph - N/A   Clear